This demonstration page uses our WeatherBlox Daily Observations layout. Learn more.

Left ArrowRight Arrow

Hourly Observations for February 8, 2019

Temp ( °F °C ) Dew Point ( °F °C ) Humidity (%) Winds ( mph kmh ) Pressure ( in mb ) Visibility ( mi km ) Precip ( " mm )
12:15 am 00:15 Cloudy 25 -4 23 -5 93 93 W 25 41 30.14 1021 10 16 N/A
12:35 am 00:35 Cloudy 23 -5 21 -6 93 93 W 28 44 30.15 1021 10 16 N/A
12:36 am 00:36 Cloudy 23 -5 21 -6 93 93 W 26 43 30.15 1021 10 16 N/A
12:55 am 00:55 Cloudy 21 -6 18 -8 86 86 W 24 39 30.19 1022 10 16 N/A
12:56 am 00:56 Cloudy 21 -6 18 -8 86 86 W 26 43 30.19 1022 10 16 N/A
1:15 am 01:15 Cloudy 21 -6 18 -8 86 86 W 26 43 30.20 1023 10 16 N/A
1:35 am 01:35 Cloudy 21 -6 18 -8 86 86 W 25 41 30.21 1023 10 16 N/A
1:36 am 01:36 Cloudy 21 -6 18 -8 86 86 W 25 41 30.21 1023 10 16 N/A
1:55 am 01:55 Cloudy 21 -6 18 -8 86 86 W 25 41 30.22 1023 7 11 N/A
1:56 am 01:56 Cloudy 21 -6 18 -8 86 86 W 24 39 30.23 1024 7 11 N/A
2:15 am 02:15 Cloudy 19 -7 18 -8 93 93 W 25 41 30.24 1024 7 11 N/A
2:35 am 02:35 Cloudy 19 -7 14 -10 79 79 W 23 37 30.26 1025 10 16 N/A
2:36 am 02:36 Cloudy 19 -7 14 -10 79 79 W 22 35 30.26 1025 10 16 N/A
2:55 am 02:55 Cloudy 19 -7 16 -9 86 86 W 21 33 30.27 1025 7 11 N/A
3:15 am 03:15 Cloudy 19 -7 18 -8 93 93 W 17 28 30.28 1025 5 8 N/A
3:16 am 03:16 Cloudy 19 -7 18 -8 93 93 W 17 28 30.28 1025 5 8 N/A
3:35 am 03:35 Cloudy 19 -7 16 -9 86 86 W 25 41 30.29 1026 10 16 N/A
3:36 am 03:36 Cloudy 19 -7 16 -9 86 86 W 28 44 30.29 1026 10 16 N/A
3:55 am 03:55 Cloudy 18 -8 14 -10 86 86 W 23 37 30.31 1026 7 11 N/A
4:15 am 04:15 Mostly Cloudy 18 -8 12 -11 79 79 W 25 41 30.32 1027 10 16 N/A
4:16 am 04:16 Mostly Cloudy 18 -8 12 -11 79 79 W 25 41 30.32 1027 10 16 N/A
4:35 am 04:35 Mostly Cloudy 18 -8 14 -10 86 86 W 21 33 30.33 1027 10 16 N/A
4:36 am 04:36 Mostly Cloudy 18 -8 14 -10 86 86 W 21 33 30.33 1027 10 16 N/A
4:55 am 04:55 Cloudy 18 -8 14 -10 86 86 W 26 43 30.34 1027 10 16 N/A
5:15 am 05:15 Cloudy 18 -8 14 -10 86 86 W 21 33 30.36 1028 10 16 N/A
5:16 am 05:16 Cloudy 18 -8 14 -10 86 86 W 24 39 30.36 1028 10 16 N/A
5:35 am 05:35 Cloudy 18 -8 14 -10 86 86 W 17 28 30.37 1028 7 11 N/A
5:36 am 05:36 Cloudy 18 -8 14 -10 86 86 W 17 28 30.37 1028 7 11 N/A
5:55 am 05:55 Cloudy 18 -8 14 -10 86 86 W 24 39 30.38 1029 7 11 N/A
6:15 am 06:15 Cloudy 16 -9 12 -11 86 86 W 21 33 30.40 1029 10 16 N/A
6:16 am 06:16 Cloudy 16 -9 12 -11 86 86 W 22 35 30.40 1029 10 16 N/A
6:35 am 06:35 Cloudy 16 -9 14 -10 93 93 W 22 35 30.40 1029 7 11 N/A
6:55 am 06:55 Cloudy 16 -9 10 -12 79 79 W 25 41 30.42 1030 10 16 N/A
7:15 am 07:15 Cloudy 16 -9 12 -11 86 86 W 17 28 30.43 1030 10 16 N/A
7:16 am 07:16 Cloudy 16 -9 12 -11 86 86 W 16 26 30.42 1030 10 16 N/A
7:35 am 07:35 Cloudy 16 -9 12 -11 86 86 W 23 37 30.44 1031 10 16 N/A
7:55 am 07:55 Cloudy 16 -9 10 -12 79 79 W 21 33 30.45 1031 10 16 N/A
7:56 am 07:56 Cloudy 16 -9 10 -12 79 79 W 22 35 30.45 1031 10 16 N/A
8:15 am 08:15 Cloudy 14 -10 10 -12 85 85 W 23 37 30.47 1032 10 16 N/A
8:35 am 08:35 Mostly Cloudy 16 -9 12 -11 86 86 W 16 26 30.49 1032 10 16 N/A
8:55 am 08:55 Cloudy 16 -9 12 -11 86 86 W 18 30 30.50 1033 10 16 N/A
8:56 am 08:56 Cloudy 16 -9 12 -11 86 86 W 18 30 30.50 1033 10 16 N/A
9:15 am 09:15 Cloudy 16 -9 12 -11 86 86 W 21 33 30.51 1033 10 16 N/A
9:35 am 09:35 Cloudy 16 -9 12 -11 86 86 W 20 31 30.52 1034 10 16 N/A
9:55 am 09:55 Cloudy 16 -9 12 -11 86 86 WSW 20 31 30.52 1034 10 16 N/A
9:56 am 09:56 Cloudy 16 -9 12 -11 86 86 W 18 30 30.52 1034 10 16 N/A
10:15 am 10:15 Cloudy 18 -8 12 -11 79 79 W 22 35 30.54 1034 10 16 N/A
10:35 am 10:35 Cloudy 18 -8 12 -11 79 79 W 22 35 30.54 1034 10 16 N/A
10:55 am 10:55 Cloudy 18 -8 12 -11 79 79 W 23 37 30.56 1035 10 16 N/A
10:56 am 10:56 Cloudy 18 -8 12 -11 79 79 W 22 35 30.56 1035 10 16 N/A
11:15 am 11:15 Mostly Cloudy 19 -7 14 -10 79 79 W 23 37 30.56 1035 10 16 N/A
11:35 am 11:35 Mostly Cloudy 18 -8 12 -11 79 79 W 20 31 30.57 1035 10 16 N/A
11:36 am 11:36 Mostly Cloudy 18 -8 12 -11 79 79 W 20 31 30.57 1035 10 16 N/A
11:55 am 11:55 Mostly Cloudy 19 -7 14 -10 79 79 W 20 31 30.57 1035 10 16 N/A
12:15 pm 12:15 Mostly Cloudy 18 -8 12 -11 79 79 W 20 31 30.60 1036 10 16 N/A
12:35 pm 12:35 Mostly Cloudy 19 -7 14 -10 79 79 W 21 33 30.59 1036 10 16 N/A
12:36 pm 12:36 Mostly Cloudy 19 -7 14 -10 79 79 W 21 33 30.59 1036 10 16 N/A
12:55 pm 12:55 Mostly Cloudy 21 -6 14 -10 74 74 W 18 30 30.59 1036 10 16 N/A
1:15 pm 13:15 Mostly Cloudy 21 -6 14 -10 74 74 W 18 30 30.59 1036 10 16 N/A
1:35 pm 13:35 Mostly Cloudy 19 -7 12 -11 73 73 W 16 26 30.59 1036 10 16 N/A
1:36 pm 13:36 Mostly Cloudy 19 -7 12 -11 73 73 W 18 30 30.59 1036 10 16 N/A
1:55 pm 13:55 Partly Cloudy 19 -7 12 -11 73 73 W 20 31 30.60 1036 10 16 N/A
2:15 pm 14:15 Partly Cloudy 21 -6 14 -10 74 74 WNW 20 31 30.60 1036 10 16 N/A
2:35 pm 14:35 Mostly Cloudy 21 -6 14 -10 74 74 W 20 31 30.60 1036 10 16 N/A
2:36 pm 14:36 Mostly Cloudy 23 -5 14 -10 68 68 W 21 33 30.59 1036 10 16 N/A
2:55 pm 14:55 Mostly Cloudy 21 -6 14 -10 74 74 WNW 21 33 30.60 1036 10 16 N/A
3:15 pm 15:15 Mostly Cloudy 19 -7 12 -11 73 73 WNW 20 31 30.61 1037 10 16 N/A
3:16 pm 15:16 Mostly Cloudy 19 -7 12 -11 73 73 WNW 20 31 30.61 1037 10 16 N/A
3:35 pm 15:35 Partly Cloudy 21 -6 14 -10 74 74 W 18 30 30.61 1037 10 16 N/A
3:36 pm 15:36 Partly Cloudy 21 -6 14 -10 74 74 W 20 31 30.62 1037 10 16 N/A
3:55 pm 15:55 Mostly Cloudy 21 -6 14 -10 74 74 W 21 33 30.62 1037 10 16 N/A
3:56 pm 15:56 Mostly Cloudy 21 -6 14 -10 74 74 W 20 31 30.62 1037 10 16 N/A
4:15 pm 16:15 Cloudy 19 -7 14 -10 79 79 WNW 10 17 30.63 1037 7 11 N/A
4:35 pm 16:35 Cloudy 21 -6 12 -11 68 68 WNW 18 30 30.64 1038 10 16 N/A
4:36 pm 16:36 Cloudy 21 -6 12 -11 68 68 WNW 20 31 30.64 1038 10 16 N/A
4:55 pm 16:55 Mostly Cloudy 19 -7 12 -11 73 73 W 18 30 30.64 1038 10 16 N/A
5:15 pm 17:15 Mostly Cloudy 19 -7 12 -11 73 73 W 20 31 30.65 1038 10 16 N/A
5:35 pm 17:35 Cloudy 18 -8 12 -11 79 79 W 16 26 30.67 1038 10 16 N/A
5:36 pm 17:36 Cloudy 18 -8 12 -11 79 79 W 17 28 30.67 1038 10 16 N/A
5:55 pm 17:55 Cloudy 18 -8 12 -11 79 79 W 15 24 30.67 1038 10 16 N/A
6:15 pm 18:15 Partly Cloudy 18 -8 10 -12 73 73 WNW 15 24 30.68 1039 10 16 N/A
6:35 pm 18:35 Mostly Cloudy 18 -8 10 -12 73 73 W 15 24 30.70 1039 10 16 N/A
6:36 pm 18:36 Mostly Cloudy 18 -8 10 -12 73 73 W 15 24 30.70 1039 10 16 N/A
6:55 pm 18:55 Mostly Cloudy 18 -8 12 -11 79 79 W 15 24 30.71 1040 10 16 N/A
7:15 pm 19:15 Cloudy 18 -8 12 -11 79 79 WNW 9 15 30.72 1040 10 16 N/A
7:35 pm 19:35 Mostly Cloudy 16 -9 12 -11 86 86 W 13 20 30.74 1041 10 16 N/A
7:36 pm 19:36 Mostly Cloudy 16 -9 10 -12 79 79 WNW 12 19 30.74 1041 10 16 N/A
7:55 pm 19:55 Partly Cloudy 16 -9 10 -12 79 79 WNW 15 24 30.75 1041 10 16 N/A
8:15 pm 20:15 Clear 16 -9 10 -12 79 79 WNW 16 26 30.76 1042 10 16 N/A
8:35 pm 20:35 Clear 16 -9 10 -12 79 79 W 12 19 30.76 1042 10 16 N/A
8:36 pm 20:36 Clear 16 -9 10 -12 79 79 W 12 19 30.76 1042 10 16 N/A
8:55 pm 20:55 Clear 16 -9 10 -12 79 79 W 12 19 30.77 1042 10 16 N/A
9:15 pm 21:15 Clear 16 -9 10 -12 79 79 W 13 20 30.78 1042 10 16 N/A
9:16 pm 21:16 Clear 16 -9 10 -12 79 79 W 13 20 30.78 1042 10 16 N/A
9:35 pm 21:35 Clear 16 -9 10 -12 79 79 W 12 19 30.79 1043 10 16 N/A
9:36 pm 21:36 Clear 16 -9 10 -12 79 79 W 10 17 30.79 1043 10 16 N/A
9:55 pm 21:55 Clear 16 -9 10 -12 79 79 W 15 24 30.80 1043 10 16 N/A
10:15 pm 22:15 Clear 14 -10 10 -12 85 85 WNW 14 22 30.80 1043 10 16 N/A
10:16 pm 22:16 Clear 14 -10 10 -12 85 85 W 13 20 30.80 1043 10 16 N/A
10:35 pm 22:35 Clear 14 -10 10 -12 85 85 W 13 20 30.81 1043 10 16 N/A

Powered by AerisWeather